Regional Weather Roundup
Issued by NWS Kansas City/Pleasant Hill, MO

Home | Current Version | Previous Version | Graphics & Text | Print | Product List | Glossary Off
Versions: 1 2 3 4 5 6 7 8 9 10 11 12 13 14 15 16 17 18 19 20 21 22 23 24 25 26 27 28 29 30 31 32 33 34 35 36 37 38 39 40 41 42 43 44 45 46 47 48 49 50

000
ASUS43 KEAX 060804
RWREAX

WEATHER ROUNDUP FOR EASTERN KANSAS AND NORTHWEST MISSOURI
NATIONAL WEATHER SERVICE KANSAS CITY/PLEASANT HILL MO
200 AM CST FRI MAR 06 2015

KSZ040-057-103>105-MOZ028-029-037-043-060900-
...KANSAS CITY METROPOLITAN AREA...

CITY           SKY/WX    TMP DP  RH WIND       PRES   REMARKS
K.C. INTL      CLEAR     24  13  62 S16       30.38F WCI  11
K.C. DOWNTOWN  CLEAR     27  12  53 S9G17     30.42F WCI  18
LEES SUMMIT    CLEAR     24  11  57 S12       30.42F WCI  13
OLATHE - IXD   CLEAR     23  14  68 S13       30.41F WCI  11
OLATHE - OJC   CLEAR     23  15  71 S9        30.41F WCI  13
LAWRENCE       CLEAR     23  15  71 S10       30.41F WCI  12

$$

MOZ001>008-011>017-020>025-030>033-038>040-044>046-053-054-060900-
...NORTHERN AND CENTRAL MISSOURI...

CITY           SKY/WX    TMP DP  RH WIND       PRES   REMARKS
ST. JOSEPH     CLEAR     24  14  65 S9        30.38F WCI  14
MOSBY          SUNNY     23  14  68 SE3       30.43F
WARRENSBURG    CLEAR     23  12  63 SE7       30.46S WCI  15
WHITEMAN AFB   CLEAR     22  12  67 S9        30.45F WCI  11
CLINTON        CLEAR     25  14  63 S6        30.48F WCI  18
SEDALIA        PTCLDY    22  11  62 S10       30.47F WCI  11
WARSAW         NOT AVBL
MARSHALL       FAIR      23  14  68 SE8       30.49F WCI  14
CHILLICOTHE      N/A     20  10  65 SE7       30.44F WCI  11
MOBERLY        CLEAR     18   9  68 SE8       30.47F WCI   7
KIRKSVILLE     CLEAR     15  10  80 S9        30.44F WCI   3

$$

MOZ041-047>049-056>058-063>065-088>090-097-060900-
...EASTERN AND SOUTHERN MISSOURI...

CITY           SKY/WX    TMP DP  RH WIND       PRES   REMARKS
ST. LOUIS INTL CLEAR     17   6  62 SE6       30.56F WCI   9
SPIRIT OF STL  CLEAR     15   7  70 CALM      30.55F
COLUMBIA       CLEAR     16   9  74 SE9       30.48F WCI   4
JEFFERSON CITY CLEAR     17   9  70 E5        30.53F WCI  10
MEXICO         CLEAR     16  12  86 SE8       30.50F WCI   5
HANNIBAL       CLEAR     12   3  67 SE7       30.50F WCI   2
ROLLA          CLEAR     18   9  68 SE9       30.47F WCI   7
LEBANON        CLEAR     18   9  68 S5        30.47F WCI  11
OSAGE BEACH    CLEAR     18   9  68 SE6       30.49F WCI   9
SPRINGFIELD    CLEAR     21  12  68 S9        30.47S WCI  11
NEVADA         CLEAR     23  16  74 S9        30.48S WCI  13
JOPLIN         CLEAR     25  14  63 S12       30.47F WCI  14
WEST PLAINS    CLEAR     15   7  70 S5        30.52S WCI   8

$$

IAZ060-094-KSZ022-034>040-054-083-096-NEZ052-066-093-060900-
...KANSAS...SOUTHEAST NEBRASKA AND IOWA...

CITY           SKY/WX    TMP DP  RH WIND       PRES   REMARKS
TOPEKA         CLEAR     28  17  63 S7        30.38F WCI  21
MANHATTAN      CLEAR     31  21  66 SW13      30.33F WCI  21
EMPORIA        CLEAR     24  18  77 S13       30.38S WCI  12
CHANUTE        CLEAR     26  19  74 S9        30.45R WCI  17
WICHITA        CLEAR     29  19  66 S13       30.39S WCI  19
OMAHA          PTCLDY    25  12  58 S18       30.26F WCI  11
LINCOLN        CLEAR     28  16  60 S13       30.23F WCI  17
FALLS CITY     PTCLDY    25  14  63 S13       30.32F WCI  14
LAMONI         CLEAR     18   8  65 S12       30.36F WCI   5
DES MOINES     CLOUDY    18   6  59 S13       30.34F WCI   5

$$



USA.gov is the U.S. government's official web portal to all federal, state and local government web resources and services.